TimeEST,TemperatureF,Dew PointF,Humidity,Sea Level PressureIn,VisibilityMPH,Wind Direction,Wind SpeedMPH,Gust SpeedMPH,PrecipitationIn,Events,Conditions,WindDirDegrees,DateUTC
12:15 AM,28.4,28.4,100,30.47,10.0,Calm,Calm,-,N/A,,Clear,0,2012-11-15 05:15:00
12:35 AM,28.4,28.4,100,30.47,7.0,Calm,Calm,-,N/A,,Clear,0,2012-11-15 05:35:00
12:55 AM,28.4,28.4,100,30.46,7.0,Calm,Calm,-,N/A,,Clear,0,2012-11-15 05:55:00
1:15 AM,28.4,28.4,100,30.46,7.0,Calm,Calm,-,N/A,,Clear,0,2012-11-15 06:15:00
1:40 AM,26.6,26.6,100,30.45,10.0,Calm,Calm,-,N/A,,Clear,0,2012-11-15 06:40:00
2:00 AM,28.4,28.4,100,30.45,10.0,Calm,Calm,-,N/A,,Clear,0,2012-11-15 07:00:00
2:20 AM,26.6,26.6,100,30.45,7.0,Calm,Calm,-,N/A,,Clear,0,2012-11-15 07:20:00
2:40 AM,28.4,28.4,100,30.45,10.0,Calm,Calm,-,N/A,,Clear,0,2012-11-15 07:40:00
3:05 AM,28.4,28.4,100,30.44,10.0,Calm,Calm,-,N/A,,Clear,0,2012-11-15 08:05:00
3:25 AM,28.4,28.4,100,30.44,10.0,Calm,Calm,-,N/A,,Clear,0,2012-11-15 08:25:00
3:45 AM,28.4,28.4,100,30.43,10.0,Calm,Calm,-,N/A,,Clear,0,2012-11-15 08:45:00
4:05 AM,28.4,28.4,100,30.43,10.0,North,4.6,-,N/A,,Scattered Clouds,10,2012-11-15 09:05:00
4:30 AM,30.2,30.2,100,30.42,10.0,Calm,Calm,-,N/A,,Mostly Cloudy,0,2012-11-15 09:30:00
4:50 AM,30.2,30.2,100,30.42,10.0,NNE,3.5,-,N/A,,Overcast,30,2012-11-15 09:50:00
5:10 AM,30.2,30.2,100,30.42,10.0,Calm,Calm,-,N/A,,Overcast,0,2012-11-15 10:10:00
5:30 AM,30.2,30.2,100,30.42,10.0,Calm,Calm,-,N/A,,Overcast,0,2012-11-15 10:30:00
5:50 AM,32.0,30.2,93,30.43,10.0,Calm,Calm,-,N/A,,Overcast,0,2012-11-15 10:50:00
6:45 AM,32.0,30.2,93,30.43,10.0,Calm,Calm,-,N/A,,Overcast,0,2012-11-15 11:45:00
7:50 AM,33.8,30.2,87,30.44,10.0,Variable,3.5,-,N/A,,Overcast,0,2012-11-15 12:50:00
8:45 AM,35.6,32.0,87,30.45,10.0,NE,8.1,-,N/A,,Overcast,40,2012-11-15 13:45:00
9:59 AM,39.2,32.0,75,30.43,10.0,NNE,6.9,-,N/A,,Overcast,30,2012-11-15 14:59:00
10:52 AM,41.0,32.0,70,30.43,10.0,NE,6.9,-,N/A,,Overcast,50,2012-11-15 15:52:00
11:50 AM,44.6,33.8,66,30.41,10.0,North,4.6,-,N/A,,Overcast,360,2012-11-15 16:50:00
12:50 PM,44.6,35.6,71,30.39,10.0,North,5.8,-,N/A,,Overcast,350,2012-11-15 17:50:00
2:50 PM,46.4,35.6,66,30.36,10.0,NE,6.9,-,N/A,,Overcast,40,2012-11-15 19:50:00
3:45 PM,44.6,35.6,71,30.35,10.0,NE,4.6,-,N/A,,Scattered Clouds,40,2012-11-15 20:45:00
4:55 PM,41.0,33.8,76,30.36,10.0,Variable,3.5,-,N/A,,Mostly Cloudy,0,2012-11-15 21:55:00
5:59 PM,35.6,32.0,87,30.36,10.0,Calm,Calm,-,N/A,,Clear,0,2012-11-15 22:59:00
7:56 PM,33.8,33.8,100,30.36,10.0,Calm,Calm,-,N/A,,Clear,0,2012-11-16 00:56:00
8:05 PM,33.8,32.0,93,30.36,10.0,Calm,Calm,-,N/A,,Clear,0,2012-11-16 01:05:00
8:25 PM,33.8,32.0,93,30.35,10.0,Calm,Calm,-,N/A,,Clear,0,2012-11-16 01:25:00
8:45 PM,33.8,32.0,93,30.34,10.0,Calm,Calm,-,N/A,,Clear,0,2012-11-16 01:45:00
9:05 PM,33.8,33.8,100,30.34,10.0,Calm,Calm,-,N/A,,Clear,0,2012-11-16 02:05:00
9:30 PM,33.8,32.0,93,30.34,10.0,Calm,Calm,-,N/A,,Clear,0,2012-11-16 02:30:00
9:50 PM,33.8,33.8,100,30.34,10.0,Calm,Calm,-,N/A,,Clear,0,2012-11-16 02:50:00
10:10 PM,33.8,33.8,100,30.34,10.0,Calm,Calm,-,N/A,,Clear,0,2012-11-16 03:10:00
10:30 PM,33.8,33.8,100,30.35,10.0,Calm,Calm,-,N/A,,Clear,0,2012-11-16 03:30:00
10:55 PM,32.0,32.0,100,30.34,10.0,Calm,Calm,-,N/A,,Clear,0,2012-11-16 03:55:00
11:15 PM,32.0,32.0,100,30.35,10.0,Calm,Calm,-,N/A,,Clear,0,2012-11-16 04:15:00
11:35 PM,32.0,32.0,100,30.35,10.0,Calm,Calm,-,N/A,,Clear,0,2012-11-16 04:35:00
11:55 PM,32.0,32.0,100,30.35,7.0,Calm,Calm,-,N/A,,Clear,0,2012-11-16 04:55:00